Theta_e
344 344 344 344 343 345 346 348 350 351 352 351 351 351 351 351 352 353 353 349 344 343 342 341 341 340 339 339 339 339 341 343 346 347 348 348 349 349 349 348 347 348 349 348 347 348 346 344 345 348 346 342 342 343 343 343 342 343 345 344 344 346 346
343 344 345 345 344 345 346 347 349 351 351 351 351 350 351 352 352 353 353 349 343 342 342 341 340 339 339 339 339 339 340 343 346 347 348 348 348 348 349 350 350 348 347 348 349 348 344 341 340 342 343 342 344 344 342 344 342 342 346 345 344 345 343
344 344 345 345 345 345 347 347 348 349 350 350 350 350 351 352 352 352 352 350 345 343 343 342 339 337 338 339 340 339 339 343 346 346 348 349 349 349 349 349 350 350 349 348 348 347 345 344 342 340 341 344 347 346 344 345 345 343 344 344 345 348 345
345 344 345 346 347 346 347 348 349 349 350 350 350 350 350 350 352 352 352 351 348 345 345 345 342 341 340 340 340 340 339 340 343 346 350 351 350 351 351 350 349 350 351 350 349 349 348 349 347 342 341 343 345 346 345 345 347 346 344 343 345 348 348
347 344 345 347 348 347 347 348 349 349 349 350 350 350 350 350 351 353 352 352 352 350 349 349 349 348 345 343 343 344 341 338 339 344 350 352 352 351 351 351 350 350 351 351 350 349 346 347 349 348 345 343 344 346 346 345 345 345 343 341 345 349 351
346 345 345 347 347 348 348 348 349 349 349 350 350 349 351 351 352 353 353 353 353 352 352 352 352 352 350 348 348 348 346 341 338 340 346 350 351 351 352 351 351 351 351 351 351 350 347 346 349 352 351 349 349 350 350 350 349 349 347 343 344 348 352
345 345 345 346 346 347 348 349 348 349 349 349 350 350 350 351 352 352 352 353 353 353 353 353 353 353 352 351 351 350 348 346 342 342 345 348 349 350 351 351 351 351 352 352 352 352 351 350 349 350 351 351 352 352 353 352 349 349 350 346 343 345 347
346 346 346 346 346 345 348 349 348 348 350 351 351 351 351 351 352 353 353 353 353 353 354 353 353 353 353 353 352 351 350 349 348 347 348 349 350 351 351 352 352 351 351 352 352 352 352 352 352 351 350 351 352 351 351 350 346 346 350 350 348 347 349
346 344 344 345 345 345 346 348 348 348 351 352 351 350 351 353 353 353 353 351 350 352 353 352 353 354 354 352 352 352 351 350 351 350 350 351 352 352 352 352 352 351 351 352 353 352 352 352 352 352 351 350 350 349 347 347 346 348 350 350 348 347 349
345 343 343 343 344 345 345 347 349 348 352 354 350 347 349 351 351 351 350 347 346 348 350 350 352 355 354 351 350 352 353 352 351 351 352 351 352 353 352 352 352 353 352 352 352 353 353 352 353 352 350 347 347 346 345 346 347 349 351 351 349 348 349
345 343 342 342 344 345 345 348 349 349 353 353 348 345 345 345 344 345 345 345 345 346 349 351 353 355 354 350 349 350 352 353 353 352 352 352 351 352 352 351 352 352 353 352 352 353 354 354 353 352 350 349 350 350 348 348 348 349 351 353 354 354 353
345 346 343 342 343 345 346 349 350 352 353 350 347 346 343 340 341 342 342 343 344 345 347 350 352 352 351 349 349 348 347 350 353 353 353 353 352 351 351 351 351 352 353 353 353 353 354 354 354 354 352 351 351 353 352 350 350 349 349 352 355 355 355
344 346 345 344 345 346 348 350 351 353 352 347 347 349 344 338 340 342 342 343 344 344 346 347 349 348 347 348 349 347 344 346 350 353 354 353 353 352 352 351 350 351 352 353 353 353 353 354 354 355 355 353 352 353 354 352 351 349 347 349 354 355 355
346 347 347 347 348 349 350 351 352 354 353 349 349 350 347 342 340 340 341 342 343 344 346 346 347 348 347 348 349 348 347 345 346 349 351 353 353 353 352 352 351 351 353 354 354 353 353 353 354 354 355 355 354 354 355 355 353 351 349 349 352 354 355
349 348 348 348 349 350 351 351 351 353 354 353 352 353 352 350 347 344 342 343 343 343 344 346 347 348 348 348 348 348 348 348 345 345 347 349 350 350 351 353 352 352 353 354 354 354 353 353 354 354 354 355 355 355 355 355 355 355 354 352 353 355 355
350 349 350 351 351 352 353 353 353 354 355 355 353 353 354 354 354 352 349 348 346 344 344 345 346 347 348 348 349 349 349 349 348 346 345 346 346 345 348 352 354 354 354 355 355 354 354 354 354 355 355 355 355 356 355 355 355 355 354 352 353 354 355
351 351 352 352 352 352 352 352 351 351 352 352 352 352 351 352 353 350 347 346 347 347 347 347 346 346 347 347 348 349 349 349 350 348 346 347 346 346 346 348 351 353 354 355 355 353 353 354 354 354 355 355 355 355 354 354 354 353 352 351 352 352 354
349 349 350 351 351 349 347 346 346 346 347 348 350 351 351 353 354 351 345 344 346 346 347 348 348 348 348 349 349 349 349 349 350 349 348 347 347 347 346 346 347 348 349 351 354 353 352 352 353 353 354 354 354 354 353 353 353 352 351 351 351 351 352
346 347 348 348 349 347 345 344 344 345 346 346 346 347 348 351 353 354 352 349 346 345 345 345 346 347 349 350 351 352 352 352 351 351 350 349 347 346 346 346 347 347 346 347 350 352 353 353 353 353 353 354 354 355 355 354 352 352 352 352 352 352 352
345 346 347 347 348 347 346 345 345 345 346 346 346 346 346 346 349 352 354 352 350 350 348 345 345 346 347 349 352 354 354 355 354 353 352 351 350 348 346 346 346 347 347 346 346 347 349 352 354 355 354 354 355 355 355 353 351 351 352 352 352 351 351
345 346 346 347 347 347 347 347 346 346 346 346 347 347 347 347 348 349 351 352 353 354 351 348 348 348 347 348 352 354 354 355 355 355 354 353 352 351 349 347 347 346 347 347 346 345 346 349 352 355 355 355 355 354 354 354 352 351 350 350 350 349 349
343 345 346 347 347 346 347 347 347 347 347 347 348 348 349 349 348 350 351 352 353 353 352 352 353 352 351 351 353 353 352 353 354 355 356 355 354 354 352 351 350 349 347 347 347 347 347 346 349 351 352 353 353 353 353 353 351 350 350 349 348 347 347
342 343 345 346 345 345 345 346 347 347 348 348 348 348 348 348 348 349 351 353 353 352 352 353 354 353 353 353 352 352 352 352 352 353 354 353 352 352 351 351 352 351 349 348 348 348 348 346 347 348 349 349 350 351 352 351 350 349 349 348 348 347 347
342 342 343 344 344 344 344 345 347 347 347 348 348 348 347 347 347 348 348 350 352 351 351 351 352 351 352 352 352 352 352 351 351 352 351 350 349 350 349 350 351 351 350 349 350 350 349 349 349 348 348 348 348 350 351 351 350 349 349 348 348 347 347
341 341 342 342 343 344 344 345 345 346 347 348 348 348 347 346 345 344 344 345 347 348 349 350 351 351 350 351 352 352 351 351 350 350 350 349 348 349 349 348 348 349 349 349 349 349 349 349 349 349 348 348 348 348 349 349 349 348 348 348 348 348 347
341 341 341 342 342 342 343 344 345 346 347 348 347 348 347 347 346 345 344 345 346 348 349 349 350 349 347 347 350 351 350 349 348 347 347 346 346 346 347 347 348 348 348 347 347 348 348 348 348 348 348 347 347 347 347 347 347 346 347 348 348 349 349
340 341 340 340 341 343 343 343 344 345 346 346 346 346 346 347 347 346 346 346 346 347 348 347 347 347 346 347 348 348 347 346 345 343 343 344 344 343 344 345 347 348 348 348 348 347 347 348 348 348 347 347 347 347 347 347 347 346 347 348 349 350 350
338 338 338 339 340 341 341 342 343 343 344 343 344 345 345 346 346 345 346 346 346 346 346 346 346 346 347 347 347 346 346 346 344 344 344 344 344 344 344 346 347 347 349 350 349 349 348 349 349 348 348 348 348 349 348 348 347 347 347 347 348 347 347
335 335 336 337 337 338 339 340 340 340 341 341 342 343 344 344 345 344 344 344 345 345 346 346 346 345 345 346 346 346 346 346 345 345 345 345 345 345 346 347 347 348 349 349 349 348 348 348 348 347 348 348 348 348 347 346 346 346 345 344 343 342 342
335 334 334 334 334 335 337 337 337 338 338 339 340 341 341 342 342 342 343 343 343 343 344 345 345 344 345 345 345 345 345 345 345 345 344 345 345 345 345 346 346 347 347 347 346 346 346 346 346 346 346 346 346 346 344 342 341 339 337 335 335 334 334
333 334 333 332 331 331 332 333 333 334 334 335 337 337 338 339 339 339 339 339 341 342 342 342 343 343 344 343 343 343 343 343 343 343 343 343 342 343 344 344 344 345 345 344 344 343 343 343 343 343 343 342 341 339 337 335 333 332 331 330 330 329 329
327 329 329 329 329 328 328 328 329 329 330 330 330 330 331 333 335 336 335 335 337 339 339 340 340 340 340 340 340 339 340 340 340 341 342 342 342 342 342 342 343 343 342 342 342 341 341 341 339 339 338 336 335 333 332 331 331 330 330 330 330 330 329
318 319 320 321 323 323 322 321 322 323 324 324 323 322 322 324 328 330 330 331 334 334 335 335 335 334 334 334 334 334 336 337 337 337 339 340 341 341 340 340 339 339 338 338 337 336 335 334 334 333 332 332 332 332 332 332 332 331 330 330 329 328 327
316 314 314 315 316 316 314 312 312 312 314 315 316 315 316 321 325 327 327 328 328 327 328 329 328 328 328 328 328 330 332 335 336 336 336 337 337 338 338 337 336 336 335 335 334 334 333 332 332 332 332 332 333 333 333 332 332 330 329 327 326 324 322
318 315 314 313 313 313 313 312 311 310 309 309 309 308 311 316 322 324 326 326 325 325 325 326 326 327 327 327 327 327 328 330 331 331 331 332 332 333 333 332 331 331 331 329 329 329 329 330 329 329 330 330 331 331 332 331 331 329 327 325 323 320 318
317 315 315 316 317 317 318 317 317 316 314 313 312 310 310 311 313 316 319 320 321 320 321 324 325 327 328 329 329 328 328 328 328 328 327 328 328 329 329 328 328 328 328 327 327 327 327 327 327 326 326 328 329 330 331 330 329 326 323 319 316 314 313
320 318 318 319 319 319 320 321 321 321 320 319 319 317 316 315 314 313 313 313 313 312 314 317 321 325 328 329 329 328 328 328 327 327 327 327 327 327 327 327 326 326 325 324 324 325 327 328 328 328 328 329 329 328 327 325 322 318 315 313 311 310 310
322 321 322 322 321 320 321 322 322 323 323 322 322 321 320 320 319 318 316 314 313 311 311 313 317 322 326 328 328 327 327 326 325 326 326 326 325 325 325 324 322 320 318 316 316 317 319 321 322 323 323 323 322 319 317 316 314 312 312 311 310 310 308
Wind_Speed
24 23 23 22 22 21 21 20 19 19 20 20 20 20 19 18 18 18 19 20 22 22 21 20 19 19 19 18 19 18 18 18 17 15 13 13 12 11 11 11 10 10 10 9 9 9 10 10 10 10 9 9 8 8 8 8 8 7 7 7 7 7 6
24 24 23 23 22 21 21 21 20 20 20 20 20 20 20 19 20 20 19 21 22 21 21 20 19 19 18 18 18 18 18 19 18 16 14 13 13 12 12 11 10 11 10 10 9 10 10 10 11 10 10 9 9 9 9 8 8 8 7 8 8 8 8
24 24 24 23 23 21 21 21 21 21 21 20 20 21 21 21 21 21 21 21 22 22 21 20 20 19 18 17 17 18 18 18 17 16 15 13 13 12 11 11 11 10 10 10 10 9 9 9 10 11 10 9 9 9 9 8 8 9 9 9 8 8 9
23 24 23 23 23 22 21 21 21 21 21 20 20 21 22 22 21 21 21 21 22 23 22 21 20 19 18 18 17 17 18 18 17 16 14 13 12 11 11 12 11 10 9 9 9 9 9 9 10 11 11 11 10 9 9 9 9 10 10 10 9 9 9
22 23 23 22 23 23 22 22 22 22 21 21 21 21 22 22 20 20 20 20 21 22 21 20 19 19 19 18 18 17 17 18 17 16 15 13 12 11 11 11 10 10 10 9 9 10 11 11 9 9 10 11 10 10 10 10 10 10 11 11 10 9 8
22 23 24 23 23 23 23 23 22 22 22 22 22 21 20 20 20 19 20 20 20 20 20 20 19 19 19 18 18 17 17 18 17 17 16 15 14 13 12 11 11 10 10 10 10 10 11 11 10 9 10 10 10 10 9 10 10 10 11 11 11 10 9
21 23 24 23 23 22 22 23 22 21 22 22 22 21 20 20 20 19 19 19 20 19 19 20 19 19 19 18 18 18 18 18 17 17 16 15 15 14 13 12 12 11 11 10 10 11 10 11 11 11 11 10 10 10 10 11 11 10 11 12 12 11 11
21 24 24 22 23 22 22 22 22 21 21 21 21 21 20 20 20 20 19 19 20 20 20 20 19 19 19 18 18 18 17 17 17 17 16 15 15 14 14 13 13 12 12 11 11 11 11 11 11 12 12 11 11 11 11 12 12 11 11 11 12 12 11
23 27 27 24 22 22 22 21 21 21 21 21 22 22 21 21 20 21 21 21 20 20 20 20 20 19 19 19 19 18 17 16 16 16 16 16 15 14 14 13 13 13 13 12 11 11 12 12 11 12 13 13 13 13 13 13 13 12 11 12 13 13 12
24 27 28 25 20 20 21 20 20 20 20 21 22 23 22 23 23 23 23 22 20 19 19 19 19 18 19 20 19 18 17 17 16 16 16 16 15 15 14 14 13 13 13 13 12 11 12 12 12 13 14 14 14 14 14 13 13 12 12 12 13 13 13
21 24 27 24 20 18 19 19 20 20 21 22 23 23 23 23 24 24 23 21 20 19 18 18 18 19 19 19 18 18 18 17 16 17 16 16 16 15 15 15 14 13 13 13 13 12 11 12 12 13 14 14 13 13 13 13 13 13 13 12 12 12 13
20 20 22 23 20 18 18 18 19 20 21 23 23 22 22 23 23 23 22 20 19 19 18 18 18 19 19 18 17 18 18 18 17 17 17 17 16 15 15 15 15 14 14 13 13 13 12 12 11 12 13 13 13 12 13 13 13 14 14 13 13 13 13
24 20 20 21 20 17 17 17 18 20 22 23 22 20 21 22 22 22 21 20 20 19 19 19 18 18 18 17 17 17 17 18 18 18 17 17 16 16 15 15 15 15 14 13 13 13 12 12 12 11 12 12 12 12 12 13 14 15 15 15 14 13 14
22 22 21 19 17 17 17 17 17 18 20 21 21 19 20 21 22 22 21 20 21 20 21 21 19 19 18 17 18 17 16 17 18 18 18 17 17 16 15 14 15 15 14 14 13 13 13 12 12 12 11 11 12 12 12 13 14 15 15 15 14 14 14
17 19 19 17 15 15 15 16 16 15 15 16 16 16 17 18 19 21 22 22 22 21 21 22 21 20 20 19 19 18 16 16 17 18 18 18 18 17 16 15 14 14 14 14 13 13 12 12 12 12 12 12 12 12 12 13 13 14 14 14 13 13 13
14 15 15 13 12 11 10 11 12 11 10 11 12 13 14 14 16 18 19 20 22 22 21 22 22 21 20 20 19 18 17 17 17 18 18 17 17 16 16 15 14 14 14 14 13 13 12 12 12 12 12 12 12 13 13 13 14 15 16 15 13 13 13
13 12 13 12 11 10 10 9 9 9 8 8 9 11 13 14 16 17 17 18 20 21 21 21 22 22 21 20 19 18 18 18 17 18 18 17 16 16 16 16 16 16 16 14 14 14 14 14 13 13 13 12 13 13 12 14 16 17 17 14 13 14 14
13 12 12 12 11 11 11 10 9 8 6 7 8 10 11 12 14 17 18 20 20 19 18 19 20 21 21 20 19 18 18 18 18 18 18 18 17 16 15 16 16 17 18 16 14 14 15 14 14 14 14 13 13 13 14 17 18 16 16 15 14 14 15
9 9 9 9 10 10 9 8 6 5 4 6 9 11 13 12 12 13 15 18 20 20 19 19 19 21 20 20 18 17 17 17 17 17 17 17 17 17 16 16 16 16 17 16 15 14 14 14 13 14 14 14 14 14 15 18 19 17 16 16 15 15 15
9 8 7 7 7 7 6 6 6 5 4 6 9 11 14 15 14 13 12 14 17 17 18 18 18 20 20 19 17 15 15 15 15 16 16 16 15 16 17 17 16 16 16 16 16 16 16 14 12 13 13 14 14 14 15 17 19 19 17 16 16 16 17
10 10 9 8 6 4 4 5 5 5 5 8 10 10 10 12 14 13 13 14 14 14 16 16 16 18 18 17 16 15 15 14 14 14 14 14 13 14 16 17 17 16 16 16 16 17 17 17 15 13 13 13 14 14 15 17 19 18 17 16 15 15 17
10 11 11 9 7 6 6 6 6 6 6 8 10 8 6 8 11 11 11 12 13 14 14 14 14 14 14 14 14 14 14 14 13 13 13 12 12 12 14 16 16 16 16 16 17 17 18 19 18 16 15 15 16 15 16 19 19 17 17 17 16 16 17
10 12 12 10 8 6 5 6 6 6 5 5 7 8 8 9 9 10 11 10 11 12 13 13 14 13 13 14 14 14 14 13 12 12 13 13 12 11 11 11 12 14 15 16 16 17 18 19 19 18 17 18 19 16 15 19 20 17 17 17 17 18 19
12 13 12 10 8 6 4 5 6 6 5 3 3 5 9 11 10 10 10 10 9 10 11 11 12 13 13 13 13 13 13 12 11 12 12 12 12 12 11 11 11 13 14 15 16 17 17 17 18 19 18 19 19 17 15 19 21 19 19 19 19 20 20
14 13 12 11 9 6 5 4 5 6 6 5 3 3 7 11 12 11 11 9 8 9 9 9 10 12 12 10 11 12 12 12 12 12 12 12 12 11 10 11 12 13 13 14 16 17 17 16 17 17 18 19 19 18 18 21 22 22 22 23 22 22 21
15 14 14 14 12 9 7 5 5 7 8 7 6 5 5 7 9 10 11 10 9 10 10 10 11 11 10 10 11 13 12 12 13 12 13 16 17 15 12 12 12 12 13 15 16 16 16 15 14 15 17 18 19 18 19 20 21 22 23 23 22 22 22
16 16 16 16 15 13 11 9 8 7 7 6 5 4 4 4 5 6 6 6 7 10 11 11 10 11 11 13 14 15 13 12 13 14 16 19 20 19 18 16 14 11 11 11 13 14 14 13 13 15 16 16 16 17 17 18 20 21 21 21 21 22 22
16 15 15 16 16 15 16 16 14 11 10 8 7 6 4 2 3 5 6 5 4 4 5 6 7 9 11 12 13 12 10 9 10 12 15 16 15 15 16 17 15 12 9 8 9 10 9 10 12 13 13 14 14 15 15 16 16 18 19 20 21 22 22
18 16 17 19 20 18 18 20 19 17 15 13 12 11 9 6 8 10 10 10 10 8 6 4 4 7 9 10 9 8 7 7 7 9 10 10 10 9 10 11 10 9 8 9 9 8 8 8 9 10 10 12 12 12 12 12 11 13 14 15 16 16 15
19 19 19 21 21 21 22 23 23 21 20 19 17 17 15 13 14 15 15 14 13 11 11 11 9 8 9 9 9 8 8 8 7 7 6 5 5 5 6 7 8 10 9 9 8 7 7 7 7 7 8 9 9 8 8 7 6 6 6 6 6 6 6
17 18 18 18 19 20 22 23 24 24 24 23 22 22 21 19 19 20 20 19 17 16 16 15 14 13 12 12 12 11 9 9 8 8 8 6 6 6 6 8 9 9 8 6 6 6 6 7 7 7 7 6 5 4 3 2 2 3 4 4 4 4 5
16 16 17 17 17 17 18 19 20 21 22 21 20 21 21 21 21 23 24 22 21 19 18 16 16 15 16 16 16 15 13 11 11 11 11 11 12 12 10 10 9 8 7 7 7 8 7 6 6 7 7 8 8 8 8 8 8 8 7 6 6 6 6
19 19 19 18 17 16 17 18 19 19 20 19 17 17 18 19 20 21 21 21 20 18 16 15 15 16 17 17 17 17 16 15 15 15 14 14 15 15 14 12 11 10 11 12 12 11 11 10 11 11 11 11 11 10 10 9 7 6 5 4 3 3 3
21 21 21 20 20 19 19 19 20 20 20 19 17 17 17 18 18 17 17 17 16 14 13 13 13 14 13 12 12 12 13 14 15 15 15 15 16 15 14 15 15 15 15 15 15 14 14 14 13 13 12 10 9 7 5 4 2 2 2 2 2 3 4
21 22 22 22 23 23 23 23 22 22 21 20 18 17 17 17 16 15 15 15 14 14 14 15 15 15 15 14 13 13 13 13 12 12 12 14 14 14 13 13 14 14 14 13 12 11 11 10 9 8 6 5 4 3 2 1 1 3 5 6 6 6 6
21 22 23 24 24 24 23 23 23 22 22 22 20 19 18 17 15 14 13 13 12 12 13 15 16 17 17 17 16 16 16 15 14 14 15 15 14 14 14 14 14 13 12 11 10 8 7 6 5 4 3 3 2 2 2 2 3 5 7 8 7 6 4
19 20 21 21 21 20 20 20 20 20 20 20 19 19 18 17 16 15 13 12 12 11 11 12 14 15 16 15 15 15 16 16 15 14 15 14 14 13 13 13 12 12 11 9 8 7 6 5 5 4 3 2 2 3 4 4 5 5 5 5 5 5 4
16 17 17 16 16 16 16 16 15 16 17 16 16 15 15 15 15 15 14 14 13 12 11 11 12 13 14 14 13 13 13 13 12 12 12 12 12 12 11 11 10 10 9 8 7 7 6 5 4 3 3 2 2 2 2 2 3 3 4 5 5 5 5
Wind_Direction
192 190 191 191 191 193 194 193 193 192 191 193 192 189 189 188 188 189 193 197 197 194 196 196 196 197 199 202 204 204 202 201 200 199 200 201 200 203 205 206 207 208 209 214 217 217 215 210 207 211 216 218 220 223 223 228 229 227 235 233 223 224 222
192 190 189 192 192 192 194 194 194 194 194 195 193 190 189 190 191 192 195 199 198 196 197 199 199 198 199 201 203 205 204 203 204 203 202 204 205 204 204 205 210 214 212 211 217 220 218 215 214 216 219 220 223 227 229 233 237 234 236 239 232 234 238
193 192 189 192 194 194 195 195 195 196 195 194 193 191 190 192 194 195 196 198 198 197 198 200 201 201 202 202 203 205 205 205 207 207 206 209 210 209 211 211 211 217 220 219 219 220 219 221 222 222 222 222 224 230 234 237 243 243 241 242 239 240 245
193 192 190 191 193 194 195 196 197 197 196 195 194 193 194 196 197 196 197 198 197 197 198 200 202 202 203 205 206 207 207 207 208 209 210 215 216 214 217 219 217 217 223 224 221 216 215 220 226 228 227 226 226 229 235 237 240 244 244 243 243 244 249
197 195 191 191 191 193 195 196 198 198 196 196 195 195 197 198 196 195 197 197 198 199 200 200 201 203 205 207 207 209 211 212 211 210 210 214 218 218 218 221 222 224 224 223 222 222 219 218 224 233 235 234 234 234 239 241 242 246 248 246 245 246 252
198 197 193 193 192 192 194 195 198 199 198 198 198 197 196 196 195 195 197 197 198 200 201 201 201 203 206 206 207 209 212 214 215 215 214 215 218 219 221 223 222 224 226 223 222 226 226 225 225 230 234 235 236 236 239 242 242 243 247 247 244 242 240
196 193 192 194 193 193 193 195 197 198 200 202 201 197 194 195 197 195 197 198 198 199 201 203 203 204 207 207 207 210 212 214 216 216 216 218 221 222 222 224 223 221 223 223 222 222 224 229 230 231 232 232 235 235 235 240 241 238 242 248 249 247 243
188 185 189 191 193 195 193 195 197 196 198 199 199 197 193 194 197 196 197 199 199 199 201 203 204 206 208 207 208 211 211 212 213 216 216 216 220 223 222 223 223 222 221 222 225 226 224 228 232 235 235 232 236 239 238 242 245 242 241 245 247 249 250
186 190 196 196 194 195 195 196 195 194 196 196 201 204 196 192 196 198 201 205 204 203 204 206 204 206 211 211 210 211 210 210 212 215 217 215 217 220 220 221 222 224 223 221 225 229 228 228 228 234 237 234 235 240 241 243 246 243 242 243 245 247 247
195 199 202 198 193 195 197 196 195 194 193 195 206 212 203 198 202 205 209 214 214 210 211 211 206 204 212 216 213 211 210 210 211 213 215 215 217 218 219 219 220 223 224 223 225 228 231 232 228 232 240 239 240 244 245 245 246 244 244 246 249 251 252
199 201 202 197 191 194 197 195 194 191 191 200 212 216 212 211 213 215 217 219 219 215 213 213 208 205 211 217 215 212 211 210 210 213 214 214 217 219 219 219 220 223 224 224 225 225 229 234 233 234 240 241 241 244 246 246 245 246 244 244 249 252 254
198 194 198 200 196 195 196 194 191 188 193 208 216 216 220 222 220 220 222 220 220 217 214 213 210 209 212 214 213 214 213 211 211 213 215 215 216 218 219 219 220 222 224 223 225 225 226 231 234 236 239 240 238 239 244 245 244 246 247 245 246 250 252
201 196 195 198 197 196 195 193 191 192 201 214 215 212 222 227 222 222 222 220 220 218 215 216 214 213 214 211 212 215 216 215 213 213 215 217 217 217 218 220 220 221 223 223 223 225 226 228 231 233 238 242 240 237 240 245 244 246 248 247 244 246 249
195 197 195 194 193 193 195 195 196 199 205 215 214 209 218 226 225 226 225 223 223 219 215 216 215 214 215 213 214 217 217 218 218 216 215 216 217 217 217 219 220 219 221 222 222 223 225 227 230 234 237 240 241 238 240 244 246 247 249 248 245 245 248
179 185 187 190 192 193 198 201 204 206 206 212 212 206 211 221 225 228 229 228 228 223 218 217 216 217 218 218 219 220 220 219 221 222 221 220 222 220 216 217 221 221 221 222 224 225 227 228 228 232 235 236 238 239 238 241 245 246 247 247 246 246 249
155 159 161 170 178 180 187 195 199 202 201 208 215 210 209 217 223 229 232 233 233 231 224 219 219 219 220 221 222 224 224 223 223 224 224 224 226 226 221 217 217 221 223 224 227 227 228 230 229 231 235 237 240 242 242 243 243 243 244 245 246 248 249
107 114 117 122 132 143 156 168 177 185 195 211 223 222 220 222 227 235 241 242 241 239 233 227 224 223 222 224 226 227 228 227 225 224 223 222 224 225 225 222 218 219 221 223 228 230 232 234 235 236 237 239 242 244 246 245 242 246 253 254 251 249 249
92 92 99 103 107 125 145 157 168 178 193 215 226 229 228 225 229 238 245 246 246 246 242 236 233 231 228 228 230 231 230 229 228 226 222 220 220 221 224 225 224 225 226 226 228 233 237 239 240 241 241 242 244 245 247 247 246 252 263 265 258 250 247
112 96 95 100 100 113 139 160 179 190 201 228 235 235 234 233 231 235 241 246 248 249 247 242 239 239 236 234 234 232 229 227 227 229 227 223 222 222 222 223 224 227 231 232 230 232 236 238 240 244 244 243 245 246 249 251 252 254 261 265 265 259 253
122 118 113 116 108 107 131 157 188 210 222 242 249 249 246 245 242 236 234 239 243 243 244 243 242 241 241 240 236 232 229 226 223 227 231 229 225 223 223 223 223 224 227 230 233 234 236 237 239 243 245 246 248 251 255 255 254 254 258 262 266 268 267
105 116 116 117 119 127 145 163 192 220 237 249 257 260 255 249 245 238 233 234 233 231 235 238 237 238 240 239 233 231 232 226 219 221 228 231 229 227 226 226 226 227 227 228 232 235 237 237 236 240 244 248 249 252 254 255 256 259 259 257 263 270 272
91 103 106 109 124 150 169 180 198 218 232 243 250 255 257 254 247 233 223 227 228 226 227 227 225 227 229 228 227 230 233 230 221 218 220 223 224 227 231 231 229 230 230 231 231 232 234 235 235 238 244 248 250 251 254 257 262 265 261 257 262 268 268
84 95 103 111 123 136 149 162 177 190 199 219 236 238 237 242 238 217 202 206 214 215 214 212 211 213 217 220 223 227 230 231 229 225 224 224 224 226 229 230 231 232 232 234 234 234 236 238 237 237 240 244 247 250 256 261 262 263 262 261 265 268 269
82 87 93 99 104 110 124 145 163 173 173 183 228 237 233 231 225 210 199 193 194 201 203 203 206 210 212 214 217 218 219 223 227 230 230 228 225 224 223 221 226 232 233 234 237 239 241 244 246 246 246 245 245 246 255 262 263 263 263 263 264 266 269
83 80 80 81 82 88 103 131 152 151 147 154 161 189 222 227 225 223 221 214 207 207 206 202 204 207 207 210 217 217 214 216 222 227 230 229 223 221 228 233 235 240 242 241 243 245 245 246 249 250 252 253 251 250 256 265 268 269 268 267 266 266 268
90 86 82 78 74 74 83 107 131 126 121 128 137 141 164 191 206 214 217 217 214 204 195 195 203 209 211 216 222 220 216 217 224 230 238 240 233 227 239 256 254 249 249 247 243 244 247 249 249 248 250 255 257 257 260 267 271 271 271 270 269 269 271
96 93 87 84 83 83 85 92 108 121 122 121 124 123 131 161 187 186 183 197 217 214 203 202 210 216 216 215 216 219 225 233 239 242 247 249 243 235 241 255 256 246 242 240 237 239 245 250 252 252 254 257 260 262 265 268 270 271 272 272 273 274 275
95 92 89 90 92 92 92 92 96 105 111 115 118 112 106 144 164 138 122 124 146 187 200 207 215 214 213 213 215 222 235 245 243 239 239 243 242 233 231 239 243 237 230 222 222 235 248 253 256 259 262 262 262 265 268 269 272 276 279 281 283 282 280
90 90 90 91 91 91 92 92 91 90 90 93 100 107 114 132 135 129 124 118 113 115 121 131 167 190 193 196 198 200 207 212 214 219 224 229 230 220 216 224 224 214 206 202 206 226 249 256 257 259 258 255 254 258 263 268 274 278 282 285 286 286 284
91 91 91 91 91 91 93 93 92 92 92 93 98 105 112 119 119 115 110 105 104 108 110 111 119 136 144 146 148 154 160 168 175 182 190 198 198 192 193 195 191 188 194 201 207 219 230 233 234 235 238 240 241 244 254 262 267 272 276 278 285 298 306
94 93 92 91 90 91 93 93 94 96 96 96 99 100 101 103 103 97 92 90 95 100 104 109 117 123 122 119 119 123 128 133 141 145 146 146 144 146 157 170 178 184 188 186 183 186 197 207 209 207 209 207 200 198 192 161 124 97 87 85 75 54 38
96 96 95 93 91 91 93 93 94 94 94 93 94 94 95 97 98 96 91 90 92 96 102 109 115 115 114 111 108 107 108 111 115 121 134 148 149 146 149 160 169 173 164 154 152 150 151 155 152 148 148 142 133 125 117 107 99 94 89 82 74 67 54
100 100 99 98 98 98 99 98 96 95 94 92 89 88 88 89 92 96 98 98 99 100 103 106 104 102 104 106 105 102 99 98 99 104 115 129 133 133 135 139 142 143 135 127 126 125 125 127 125 122 122 121 115 109 103 95 89 87 87 78 62 43 26
101 102 102 103 103 101 99 98 98 98 97 94 92 90 87 85 86 90 92 93 95 96 96 96 95 94 95 100 105 107 103 99 100 104 110 114 117 120 124 124 122 122 121 118 119 120 121 120 118 116 116 115 111 105 99 94 82 51 22 7 342 322 320
102 104 105 105 104 101 98 97 96 96 96 95 95 93 92 91 92 93 94 93 93 93 93 95 97 98 97 98 104 109 109 106 105 106 105 108 112 117 118 115 112 113 114 114 117 120 123 123 121 120 121 122 119 117 110 125 264 301 312 317 317 310 300
107 107 108 107 104 100 98 95 93 92 92 92 92 91 91 91 92 92 96 100 101 101 101 102 104 105 106 108 110 111 110 109 109 108 104 103 104 108 109 107 105 105 107 110 112 115 121 127 137 153 169 178 192 218 251 291 302 307 314 320 324 327 327
109 110 111 110 107 102 99 97 93 91 90 88 88 88 88 89 89 87 88 92 95 100 105 110 112 111 111 115 118 118 115 114 114 115 113 110 108 107 108 110 111 111 112 114 117 120 122 124 136 152 169 185 219 254 274 299 316 324 336 349 0 14 29
113 113 112 110 108 104 101 98 94 91 89 86 84 84 85 86 88 88 87 87 90 96 103 111 117 117 117 120 122 121 118 117 117 116 115 113 112 110 107 108 111 113 114 114 117 123 128 133 142 151 165 183 213 262 302 342 359 11 22 31 42 51 57